Location: Lombard
(41.8800°N, 88.0080°W)
Time: 12:54:38
(UTC-05:00)

A-11 Canister half - Pass Details

Date: 05 February 2023
Orbit: 1512 x 1687 km, 47.2° (Epoch: 20 March)

Event Time Altitude Azimuth Distance (km) Brightness Sun altitude
Rises 09:26:49 0° 218° (SW) 4,883 11.8 21.6°
Reaches altitude 10° 09:30:05 10° 214° (SW) 3,878 11.4 22.0°
Maximum altitude 09:39:34 54° 141° (SE) 1,890 10.7 23.1°
Drops below altitude 10° 09:48:44 10° 67° (ENE) 3,757 11.3 24.1°
Sets 09:51:50 0° 63° (ENE) 4,722 11.7 24.5°
